{"data":{"norad_id":68422,"intl_designator":"2026-067G","name":"BRO-19","alt_names":[],"object_type":"PAYLOAD","status":"ACTIVE","operator":null,"country":"FR","launch_date":"2026-03-30","launch_site_code":"AFWTR","launch_vehicle":null,"mission":null,"orbit_class":"UNKNOWN","rcs_meters":null,"size_class":null,"mass_kg":null,"dimensions":null,"purposes":[],"wikipedia_slug":null,"has_3d_model":false,"image_url":null,"decayed_at":null,"tle_current":{"epoch":"2026-09-19T02:42:42.027552Z","epoch_age_seconds":188749,"freshness":"STALE","line1":"1 68422U 26067G   26262.11298643  .00002189  00000+0  10684-3 0  9996","line2":"2 68422  97.4581 219.2992 0000975  74.9665 285.1678 15.19339431 26206","mean_motion":15.19339431,"eccentricity":9.75e-5,"inclination_deg":97.4581,"raan_deg":219.2992,"arg_perigee_deg":74.9665,"mean_anomaly_deg":285.1678,"bstar":0.00010684,"rev_number":2620,"period_min":94.778031203483,"perigee_km":507.16440230918,"apogee_km":508.50716700219,"semimajor_km":6885.9727846557,"source":"CELESTRAK","updated_at":"2026-09-20T09:00:24.199349Z"}}}